This demonstration page uses our WeatherBlox Daily Observations layout. Learn more.

Left ArrowRight Arrow

36.17497, -115.13722

Hourly Observations for February 19, 2020

Temp ( °F °C ) Dew Point ( °F °C ) Humidity (%) Winds ( mph kmh ) Pressure ( in mb ) Visibility ( mi km ) Precip ( " mm )
12:53 am 00:53 Clear 45 7.2 17 -8.3 33 33 NW 6 9 30.09 1019 10 16.0934 0 0
1:53 am 01:53 Clear 44 6.7 17 -8.3 34 34 W 5 7 30.08 1019 10 16.0934 0 0
2:53 am 02:53 Clear 44 6.7 17 -8.3 34 34 WNW 5 7 30.06 1018 10 16.0934 0 0
3:53 am 03:53 Clear 44 6.7 18 -7.8 35 35 Calm 30.08 1019 10 16.0934 0 0
4:53 am 04:53 Clear 44 6.7 18 -7.8 35 35 Calm 30.11 1020 10 16.0934 0 0
5:53 am 05:53 Clear 42 5.6 19 -7.2 40 40 Calm 30.12 1020 10 16.0934 0 0
6:53 am 06:53 Sunny 43 6.1 18 -7.8 37 37 W 3 6 30.14 1021 10 16.0934 0 0
7:53 am 07:53 Sunny 48 8.9 18 -7.8 30 30 Calm 30.16 1022 10 16.0934 0 0
8:53 am 08:53 Sunny 52 11.1 18 -7.8 26 26 Calm 30.18 1022 10 16.0934 0 0
9:53 am 09:53 Sunny 55 12.8 16 -8.9 21 21 SE 6 9 30.18 1022 10 16.0934 0 0
10:53 am 10:53 Sunny 58 14.4 14 -10 18 18 E 5 7 30.18 1022 10 16.0934 0 0
11:53 am 11:53 Sunny 60 15.6 14 -10 16 16 Calm 30.15 1021 10 16.0934 0 0
12:53 pm 12:53 Sunny 61 16.1 14 -10 16 16 Calm 30.13 1020 10 16.0934 0 0
1:53 pm 13:53 Sunny 64 17.8 14 -10 14 14 ESE 5 7 30.11 1020 10 16.0934 0 0
2:53 pm 14:53 Sunny 65 18.3 14 -10 14 14 VRB 3 6 30.1 1019 10 16.0934 0 0
3:53 pm 15:53 Sunny 65 18.3 14 -10 14 14 Calm 30.11 1020 10 16.0934 0 0
4:53 pm 16:53 Sunny 64 17.8 14 -10 14 14 E 5 7 30.12 1020 10 16.0934 0 0
5:53 pm 17:53 Clear 61 16.1 15 -9.4 17 17 ESE 6 9 30.14 1021 10 16.0934 0 0
6:53 pm 18:53 Clear 60 15.6 15 -9.4 17 17 Calm 30.16 1022 10 16.0934 0 0
7:53 pm 19:53 Clear 57 13.9 16 -8.9 20 20 Calm 30.18 1022 10 16.0934 0 0
8:53 pm 20:53 Clear 52 11.1 18 -7.8 26 26 Calm 30.21 1023 10 16.0934 0 0
9:53 pm 21:53 Clear 53 11.7 16 -8.9 23 23 SE 9 15 30.22 1024 10 16.0934 0 0
10:53 pm 22:53 Clear 52 11.1 16 -8.9 24 24 SW 6 9 30.24 1024 10 16.0934 0 0
11:53 pm 23:53 Clear 52 11.1 14 -10 22 22 SSW 5 7 30.25 1025 10 16.0934 0 0

Powered by AerisWeather